Weather History for Christmas Island, IS

Change the Weather History Date:

Wednesday, September 19, 2012

  Actual Average Record
Temperature  
Mean Temperature 74 °F -  
Max Temperature 78 °F 76 °F 84 °F (2006)
Min Temperature 71 °F 71 °F 69 °F (2003)
Cooling Degree Days 10    
Growing Degree Days 24 (Base 50)    
Moisture  
Dew Point 74 °F    
Average Humidity 99    
Maximum Humidity 100    
Minimum Humidity 94    
Precipitation  
Precipitation 0.00 in - - ()
Sea Level Pressure  
Sea Level Pressure 29.93 in    
Wind  
Wind Speed 10 mph ()    
Max Wind Speed 14 mph    
Max Gust Speed -    
Visibility 6.2 miles    
Events      
Averages and records for this station are not official NWS values.
T = Trace of Precipitation, MM = Missing Value Source: Averaged Metar Reports

Daily Weather History Graph

Daily Weather History Graph

Search for Another Location

Airport:

Trip Planner

Search our weather history database for the weather conditions in past years. The results will help you decide how hot, cold, wet, or windy it might be!

Date:

Astronomy

Sep. 19, 2012 Rise Set
Actual Time 5:48 AM CXT 5:53 PM CXT
Civil Twilight 5:27 AM CXT 6:14 PM CXT
Nautical Twilight 5:03 AM CXT 6:38 PM CXT
Astronomical Twilight 4:38 AM CXT 7:03 PM CXT
Moon 8:05 AM CXT (9/19) 8:58 PM CXT (9/19)
Length of Visible Light 12h 46m
Length of Day
12h 04m
Waxing Crescent, 13% of the Moon is Illuminated
Sep 19
Waxing Crescent
Sep 23
First Quarter
Sep 30
Full
Oct 8
Last Quarter
Oct 15
New

Hourly Weather History & Observations

Time (CXT) Temp. Dew Point Humidity Pressure Visibility Wind Dir Wind Speed Gust Speed Precip Events Conditions
12:00 AM 73 °F 73 °F 100% 29.93 in - SE 10.4 mph - -   Overcast
12:00 AM 73.4 °F 73.4 °F 100% 29.95 in 6.2 mi SE 10.4 mph - N/A   Overcast
12:01 AM 73.4 °F 73.4 °F 100% 29.95 in 6.2 mi SE 10.4 mph - N/A   Overcast
1:00 AM 72 °F 72 °F 100% 29.90 in - SE 10.4 mph - -  
1:00 AM 73.4 °F 73.4 °F 100% 29.95 in 6.2 mi SE 10.4 mph - N/A   Scattered Clouds
2:00 AM 73.4 °F 73.4 °F 100% 29.92 in 6.2 mi SE 10.4 mph - N/A   Mostly Cloudy
3:00 AM 72 °F 72 °F 100% 29.88 in - SE 9.2 mph - -  
3:00 AM 71.6 °F 71.6 °F 100% 29.92 in 6.2 mi SE 9.2 mph - N/A   Scattered Clouds
4:00 AM 72 °F 72 °F 100% 29.88 in - SE 10.4 mph - -  
4:00 AM 71.6 °F 71.6 °F 100% 29.92 in 6.2 mi SE 10.4 mph - N/A   Scattered Clouds
5:00 AM 73.4 °F 73.4 °F 100% 29.92 in 6.2 mi SE 10.4 mph - N/A   Overcast
6:00 AM 72 °F 72 °F 99% 29.91 in - SE 8.1 mph - -  
6:00 AM 71.6 °F 71.6 °F 100% 29.95 in 6.2 mi SE 8.1 mph - N/A   Scattered Clouds
7:00 AM 73 °F 73 °F 100% 29.92 in - SE 9.2 mph - -  
7:00 AM 73.4 °F 73.4 °F 100% 29.95 in 6.2 mi SE 9.2 mph - N/A   Mostly Cloudy
8:00 AM 77.0 °F 75.2 °F 94% 29.98 in 6.2 mi ESE 11.5 mph - N/A   Scattered Clouds
9:00 AM 76 °F 76 °F 100% 29.96 in - ESE 12.7 mph - -   Overcast
9:00 AM 77.0 °F 75.2 °F 94% 29.98 in 6.2 mi ESE 12.7 mph - N/A   Mostly Cloudy
10:00 AM 77 °F 76 °F 98% 29.95 in - SE 12.7 mph - -  
10:00 AM 77.0 °F 77.0 °F 100% 29.98 in 6.2 mi SE 12.7 mph - N/A   Overcast
11:00 AM 77.0 °F 77.0 °F 100% 29.98 in 6.2 mi ESE 13.8 mph - N/A   Mostly Cloudy
12:00 PM 78 °F 78 °F 100% 29.92 in - ESE 12.7 mph - -   Overcast
12:00 PM 78.8 °F 78.8 °F 100% 29.95 in 6.2 mi ESE 12.7 mph - N/A   Mostly Cloudy
1:00 PM 77 °F 77 °F 98% 29.89 in - SE 12.7 mph - -  
1:00 PM 77.0 °F 77.0 °F 100% 29.92 in 6.2 mi SE 12.7 mph - N/A   Mostly Cloudy
2:00 PM 78.8 °F 78.8 °F 100% 29.89 in 6.2 mi SE 12.7 mph - N/A   Scattered Clouds
3:00 PM 78 °F 78 °F 98% 29.86 in - SSE 11.5 mph - -  
3:00 PM 77.0 °F 77.0 °F 100% 29.89 in 6.2 mi SSE 11.5 mph - N/A   Scattered Clouds
4:00 PM 76 °F 76 °F 100% 29.86 in - SE 11.5 mph - -  
4:00 PM 77.0 °F 77.0 °F 100% 29.89 in 6.2 mi SE 11.5 mph - N/A   Scattered Clouds
5:00 PM 75.2 °F 75.2 °F 100% 29.92 in 6.2 mi SE 9.2 mph - N/A   Mostly Cloudy
6:00 PM 74 °F 74 °F 99% 29.89 in - SSE 9.2 mph - -  
6:00 PM 73.4 °F 73.4 °F 100% 29.92 in 6.2 mi SSE 9.2 mph - N/A   Mostly Cloudy
7:00 PM 73 °F 73 °F 100% 29.91 in - SE 10.4 mph - -  
7:00 PM 73.4 °F 73.4 °F 100% 29.95 in 6.2 mi SE 10.4 mph - N/A   Scattered Clouds
8:00 PM 73.4 °F 73.4 °F 100% 29.95 in 6.2 mi SE 10.4 mph - N/A   Mostly Cloudy
9:00 PM 73.4 °F 73.4 °F 100% 29.98 in 6.2 mi SE 10.4 mph - N/A   Mostly Cloudy
10:00 PM 74 °F 74 °F 98% 29.95 in - SE 11.5 mph - -  
10:00 PM 73.4 °F 73.4 °F 100% 29.98 in 6.2 mi SE 11.5 mph - N/A   Overcast
11:00 PM 73.4 °F 73.4 °F 100% 29.98 in 6.2 mi SE 9.2 mph - N/A   Overcast